Powrót do katalogu

METEOR 2-7 DEB

AktywnyPO
NORAD 43300·DEBRIS·🇷🇺 Russia

Wystrzelony May 14, 1981 z Plesetsk Cosmodrome

Loading…

Następne Przeloty (najbliższe 24 godziny)

TLE

ŚwieżeSource: Space-Track

Epoka: Sep 14, 2026, 12:20 UTC

1 43300U 81043X   26257.51393535  .00002118  00000-0  73251-3 0  9995
2 43300  81.2534 325.8438 0039412 118.8625 241.6524 14.35033691568107

Śledź METEOR 2-7 DEB w czasie rzeczywistym z AllMySat

Download on the App Store